Powrót do katalogu

SL-16 R/B

AktywnyLEO
NORAD 22285·ROCKET BODY·🇷🇺 Russia

Wystrzelony Dec 25, 1992 z Baikonur Cosmodrome

Loading…

Następne Przeloty (najbliższe 24 godziny)

TLE

ŚwieżeSource: Space-Track

Epoka: Sep 14, 2026, 05:09 UTC

1 22285U 92093B   26257.21498303 -.00000082  00000-0 -17713-4 0  9999
2 22285  71.0240 328.4929 0004280 346.7543  13.3467 14.15474259739834

Śledź SL-16 R/B w czasie rzeczywistym z AllMySat

Download on the App Store